CW8690 Weather Reports


Display with metric or nautical units.
time (UTC)temp
F
wind
direction
speed
MPH
gust
MPH
rain 1hr
in
rain 24hr
in
rain mn
in
humidity
%
barometer
mb
20240523151203 88 106 12.0 21.0 0.00 0.00 0.00 78 1007.8
20240523145646 87 158 14.0 21.0 0.00 0.00 0.00 79 1007.8
20240523144120 87 134 10.0 17.0 0.00 0.00 0.00 82 1007.8
20240523142657 86 102 10.0 18.0 0.00 0.00 0.00 83 1007.6
20240523141131 85 141 8.0 13.0 0.00 0.00 0.00 85 1007.5
20240523135627 85 112 9.0 14.0 0.00 0.00 0.00 86 1007.3
20240523134123 84 71 11.0 18.0 0.00 0.00 0.00 87 1007.0
20240523132623 84 138 8.0 13.0 0.00 0.00 0.00 89 1007.0
20240523131143 83 120 9.0 17.0 0.00 0.00 0.00 90 1006.9
20240523125622 83 92 7.0 22.0 0.00 0.00 0.00 91 1005.8
20240523124142 83 180 12.0 17.0 0.00 0.00 0.00 92 1005.5
20240523122636 83 71 10.0 19.0 0.00 0.00 0.00 92 1005.2
20240523121123 83 138 11.0 20.0 0.00 0.00 0.00 92 1005.4
20240523115644 83 137 14.0 25.0 0.00 0.00 0.00 92 1005.4
20240523114121 83 161 11.0 17.0 0.00 0.00 0.00 92 1005.3
20240523112642 83 185 10.0 17.0 0.00 0.00 0.00 93 1005.1
20240523111116 83 144 8.0 17.0 0.00 0.00 0.00 93 1005.3
20240523105617 83 154 8.0 18.0 0.00 0.00 0.00 93 1005.1
20240523104117 83 126 11.0 16.0 0.00 0.00 0.00 94 1004.9
20240523102616 83 97 12.0 19.0 0.00 0.00 0.00 94 1004.8
20240523101116 82 116 11.0 14.0 0.00 0.00 0.00 94 1005.1
20240523095617 82 155 10.0 17.0 0.00 0.00 0.00 94 1004.9
20240523094138 83 127 8.0 20.0 0.00 0.00 0.00 94 1004.7
20240523092619 83 148 9.0 16.0 0.00 0.00 0.00 93 1004.4
20240523091141 82 127 11.0 20.0 0.00 0.00 0.00 93 1004.3
20240523085642 82 150 11.0 20.0 0.00 0.00 0.00 93 1004.4
20240523084137 82 157 11.0 21.0 0.00 0.00 0.00 93 1004.3
20240523082622 82 125 12.0 21.0 0.00 0.00 0.00 93 1004.1
20240523081203 82 107 12.0 19.0 0.00 0.00 0.00 93 1004.0
20240523075633 82 101 10.0 17.0 0.00 0.00 0.00 93 1004.6
20240523074124 82 175 10.0 19.0 0.00 0.00 0.00 93 1004.7
20240523072645 82 110 12.0 19.0 0.00 0.00 0.00 93 1004.7
20240523071122 82 171 8.0 16.0 0.00 0.00 0.00 93 1005.3
20240523065641 82 90 11.0 20.0 0.00 0.00 0.00 93 1005.7
20240523064147 82 107 10.0 16.0 0.00 0.00 0.00 93 1006.0
20240523062626 82 148 9.0 16.0 0.00 0.00 0.00 93 1006.2
20240523061126 82 124 10.0 15.0 0.00 0.00 0.00 93 1006.5
20240523055624 82 95 11.0 15.0 0.00 0.00 0.00 93 1007.1
20240523054135 82 148 7.0 11.0 0.00 0.00 0.00 93 1007.8
20240523052635 83 142 4.0 8.0 0.00 0.00 0.00 92 1008.3
20240523051136 83 165 4.0 8.0 0.00 0.00 0.00 92 1008.3
20240523045646 83 144 6.0 8.0 0.00 0.00 0.00 92 1007.8
20240523044125 83 101 4.0 10.0 0.00 0.00 0.00 93 1007.7
20240523042647 83 134 5.0 9.0 0.00 0.00 0.00 92 1007.4
20240523041125 83 142 4.0 11.0 0.00 0.00 0.00 92 1007.4
20240523035623 83 128 5.0 12.0 0.00 0.00 0.00 92 1006.9
20240523034143 83 118 7.0 13.0 0.00 0.00 0.00 91 1006.7
20240523032622 83 155 7.0 14.0 0.00 0.00 0.00 91 1006.8
20240523031121 83 121 7.0 12.0 0.00 0.00 0.00 91 1006.3
20240523025618 83 143 9.0 15.0 0.00 0.00 0.00 90 1005.6
20240523024117 83 153 8.0 12.0 0.00 0.00 0.00 90 1005.5
20240523022617 83 123 9.0 14.0 0.00 0.00 0.00 89 1005.0
20240523021117 84 119 10.0 18.0 0.00 0.00 0.00 88 1004.9
20240523015657 84 128 7.0 17.0 0.00 0.00 0.00 87 1004.8
20240523014126 84 186 8.0 17.0 0.00 0.00 0.00 86 1004.7
20240523012626 85 160 9.0 14.0 0.00 0.00 0.00 84 1004.7
20240523011127 86 143 12.0 18.0 0.00 0.00 0.00 82 1004.3
20240523005625 86 134 11.0 19.0 0.00 0.00 0.00 79 1004.4
20240523004144 87 130 9.0 19.0 0.00 0.00 0.00 77 1004.3
20240523002622 88 165 11.0 23.0 0.00 0.00 0.00 73 1003.8
20240523001124 89 120 14.0 22.0 0.00 0.00 0.00 69 1003.7
20240522235624 90 143 11.0 21.0 0.00 0.00 0.00 65 1003.7
20240522234142 91 128 13.0 23.0 0.00 0.00 0.00 62 1004.0
20240522232618 92 40 11.0 21.0 0.00 0.00 0.00 63 1004.0
20240522231136 92 141 13.0 20.0 0.00 0.00 0.00 66 1004.2
20240522225625 91 167 13.0 22.0 0.00 0.00 0.00 71 1004.5
20240522224124 91 133 13.0 24.0 0.00 0.00 0.00 74 1004.4
20240522222627 92 177 16.0 21.0 0.00 0.00 0.00 73 1004.4
20240522221126 92 164 15.0 20.0 0.00 0.00 0.00 72 1004.7
20240522215624 93 166 11.0 18.0 0.00 0.00 0.00 71 1004.7
20240522214143 93 113 11.0 20.0 0.00 0.00 0.00 73 1004.7
20240522212634 94 151 12.0 21.0 0.00 0.00 0.00 69 1004.9
20240522211121 94 155 15.0 26.0 0.00 0.00 0.00 69 1005.0
20240522205644 93 148 14.0 18.0 0.00 0.00 0.00 70 1005.0
20240522204122 94 117 12.0 23.0 0.00 0.00 0.00 70 1005.5
20240522202632 93 121 13.0 22.0 0.00 0.00 0.00 70 1005.6
20240522201117 93 151 12.0 20.0 0.00 0.00 0.00 69 1005.9
20240522195620 93 167 12.0 22.0 0.00 0.00 0.00 70 1006.0
20240522194118 94 139 12.0 20.0 0.00 0.00 0.00 70 1006.1
20240522192618 94 115 15.0 24.0 0.00 0.00 0.00 69 1006.3
20240522191131 93 103 12.0 27.0 0.00 0.00 0.00 70 1006.5
20240522185630 93 157 14.0 20.0 0.00 0.00 0.00 71 1006.6
20240522184148 93 171 13.0 20.0 0.00 0.00 0.00 71 1007.0
20240522182625 93 137 11.0 20.0 0.00 0.00 0.00 71 1007.1
20240522181124 94 166 13.0 19.0 0.00 0.00 0.00 70 1007.1
20240522175617 94 155 12.0 20.0 0.00 0.00 0.00 69 1007.1
20240522174136 92 163 12.0 22.0 0.00 0.00 0.00 70 1007.1
20240522172630 92 60 13.0 20.0 0.00 0.00 0.00 71 1007.3
20240522171126 92 138 11.0 19.0 0.00 0.00 0.00 72 1007.6
20240522164159 91 118 14.0 25.0 0.00 0.00 0.00 73 1007.0
20240522162658 91 105 13.0 26.0 0.00 0.00 0.00 73 1007.1
20240522161126 91 112 11.0 21.0 0.00 0.00 0.00 73 1007.0
20240522155641 90 141 14.0 22.0 0.00 0.00 0.00 75 1006.9
20240522154126 90 122 13.0 19.0 0.00 0.00 0.00 76 1007.1
20240522152623 88 109 6.0 17.0 0.00 0.00 0.00 80 1007.3